Zurück zum Katalog

STARLINK-37598

AktivKommunikationVLEO
NORAD 69357·PAYLOAD·🇺🇸 United States

Gestartet Jun 4, 2026 von Cape Canaveral Space Force Station

Loading…

Nächste Überflüge (nächste 24 Stunden)

TLE

AktuellSource: CelesTrak SupGP

Epoche: Sep 15, 2026, 04:22 UTC

1 69357C 26123E   26258.18243056  .00043194  00000+0  12762-2 0  2584
2 69357  53.1582 166.2675 0001184  70.2635  87.4217 15.34369607    10

Verfolge STARLINK-37598 in Echtzeit mit AllMySat

Download on the App Store